Location: Avully
(45.9633°N, 6.0228°E)
Time: 20:58:02
(UTC+00:00)

Cosmos 2184 Rocket - Pass Details

Date: 23 May 2024
Orbit: 960 x 1000 km, 82.9° (Epoch: 14 June)

Event Time Altitude Azimuth Distance (km) Brightness Sun altitude
Exits shadow 03:06:43 - 203° (SSW) 3,093 6.1 -7.7°
Reaches altitude 10° 03:07:47 10° 206° (SSW) 2,706 5.8 -7.5°
Maximum altitude 03:13:50 55° 283° (WNW) 1,169 4.3 -6.7°
Drops below altitude 10° 03:20:01 10° 1° (N) 2,751 7.0 -5.9°
Sets 03:22:38 0° 6° (N) 3,710 7.8 -5.5°
